Location: Les Jeannots
(43.2262°N, 5.5774°E)
Time: 18:02:03
(UTC+00:00)

Meteor 2-3 Rocket - Pass Details

Date: 05 July 2020
Orbit: 843 x 884 km, 81.2° (Epoch: 12 August)

Event Time Altitude Azimuth Distance (km) Brightness Sun altitude
Exits shadow 23:21:02 57° 155° (SSE) 1,000 3.7 -23.9°
Maximum altitude 23:22:04 72° 97° (E) 905 3.7 -23.9°
Drops below altitude 10° 23:27:45 10° 14° (NNE) 2,515 7.1 -24.0°
Sets 23:30:12 0° 13° (NNE) 3,463 8.1 -24.1°
